Regional Weather Roundup
Issued by NWS

Home | Current Version | Previous Version | Graphics & Text | Print | Product List | Glossary On
Versions: 1 2 3 4 5 6 7 8 9 10 11 12 13 14 15 16 17 18 19 20 21 22 23 24 25 26 27 28 29 30 31 32 33 34 35 36 37 38 39 40 41 42 43 44 45 46 47 48 49 50
000
ASUS45 KBOU 271207
RWRCO

WEATHER ROUNDUP FOR COLORADO
NATIONAL WEATHER SERVICE DENVER/BOULDER CO
600 AM MDT TUE JUN 27 2017

NOTE: "FAIR" INDICATES FEW OR NO CLOUDS BELOW 12000 FEET WITH NO
SIGNIFICANT WEATHER AND/OR OBSTRUCTIONS TO VISIBILITY.

COZ001>005-013-030-031-271300-
...NORTHWEST COLORADO...

CITY           SKY/WX    TMP DP  RH WIND       PRES   REMARKS
CRAIG          FAIR      47  39  74 CALM      30.06S
HAYDEN         FAIR      54  30  40 SE9       30.09R
MEEKER         FAIR      51  36  56 CALM      30.07S
RABBIT EARS PA PTSUNNY   52  30  43 S7        30.38R
STEAMBOAT SPGS FAIR      46  35  65 CALM      30.11S
WALDEN         FAIR      43  32  65 N5        30.23R
$$

COZ006>008-011-271300-
...WEST CENTRAL VALLEYS...

CITY           SKY/WX    TMP DP  RH WIND       PRES   REMARKS
GRAND JUNCTION FAIR      73  31  21 E13       29.95R
MONTROSE       FAIR      69  33  26 E13       30.08R
EAGLE          FAIR      49  30  48 E9        30.18R
RIFLE          FAIR      59  30  33 VRB3      30.05R
DELTA          FAIR      65  31  28 NE10      30.04R
NUCLA          FAIR      68  30  24 E6        30.13R
$$

COZ017>023-064>068-271300-
...SOUTHWEST COLORADO...

CITY           SKY/WX    TMP DP  RH WIND       PRES   REMARKS
DURANGO        FAIR      55  37  50 N6        30.23R
CORTEZ         FAIR      57  41  55 E5        30.14R
PAGOSA SPRINGS FAIR      49  36  60 CALM      30.32S
TELLURIDE      MOCLDY    61  32  33 CALM      30.37S
WOLF CREEK PAS FAIR      43  34  70 S17G25    30.61S
$$

COZ009-010-012-014-032>034-037-058>063-271300-
...CENTRAL COLORADO...

CITY           SKY/WX    TMP DP  RH WIND       PRES   REMARKS
ASPEN          FAIR      50  33  52 VRB6      30.22R
BUENA VISTA    FAIR      45  35  66 W5        30.30S
COPPER MTN     FAIR      54  21  28 S13G23    30.52S
BERTHOUD PASS  FAIR      45  32  61 W26G37    30.53R
COTTONWOOD PAS FAIR      54  32  43 CALM      30.41R
GUNNISON       FAIR      51  34  52 N8        30.28F
KREMMLING      NOT AVBL
LEADVILLE      MOCLDY    39  32  76 SE5       30.40R
MONARCH PASS   FAIR      43  30  61 SW25      30.65R
SALIDA         FAIR      62  35  37 SE9       30.33S
SUNLIGHT       MOCLDY    52  25  35 SW17G26   30.43F
WILKERSON PASS FAIR      45  30  57 SW17G25   30.49F
$$

COZ069>075-271300-
...SAN LUIS VALLEY/SANGRE DE CRISTO MOUNTAINS...

CITY           SKY/WX    TMP DP  RH WIND       PRES   REMARKS
ALAMOSA        FAIR      48  39  71 E7        30.30S
DEL NORTE      FAIR      47  39  73 CALM      30.33S
LA VETA PASS   FAIR      46  34  61 S25G35    30.54S
SAGUACHE       FAIR      46  34  61 N6        30.34R
$$

COZ035-036-038>040-271300-
...NORTHERN COLORADO FRONT RANGE...

CITY           SKY/WX    TMP DP  RH WIND       PRES   REMARKS
DENVER INTL AP MOCLDY    59  48  67 CALM      30.00F
DMNS CITY PARK   N/A     59  47  63 NE2G12    30.00S
AURORA         MOCLDY    67  39  35 SW13      30.02F
FRONT RANGE AP FAIR      68  39  34 S14G22    30.02S
ERIE MUNI ARPT FAIR      52  49  89 SW3       30.00F
BOULDER MUN AP FAIR      57  46  67 CALM      30.00F
CENTENNIAL     FAIR      64  39  39 S13       30.04F
BROOMFIELD     FAIR      59  52  77 N6        30.03S
FORT COLLINS   FAIR      55  53  93 N5        30.00F
LONGMONT       FAIR      56  48  76 CALM      30.01F
$$

COZ041-046-047-076>085-087-088-271300-
...PIKES PEAK/PALMER DIVIDE AND SOUTHERN FOOTHILLS...

CITY           SKY/WX    TMP DP  RH WIND       PRES   REMARKS
COLO. SPRINGS  FAIR      53  43  68 NE5       30.11F
A. F. ACADEMY  FAIR      47  43  84 N10       30.12F
SCHRIEVER AFB  FAIR      53  42  67 SE7       30.12F
CHEYENNE MTN   MOCLDY    64  34  33 SW6       30.10F
ELLICOTT       FAIR     N/A N/A N/A S7        30.10F
FALCON           N/A     55  37  52 CALM      30.15F
FORT CARSON    FAIR      53  44  70 N8        30.09S
LIMON          FOG       54  54 100 SE8       30.07F VSB<1/4
MONUMENT HILL  FAIR      54  37  54 S12       30.16F
CANON CITY     CLEAR     64  43  45 MISG      30.07S
WALSENBURG     FAIR      63  41  45 SW10      30.13S
TRINIDAD       FAIR      61  50  67 NW6       30.12R
$$

COZ042>045-048>051-090-091-271300-
...NORTHEAST COLORADO...

CITY           SKY/WX    TMP DP  RH WIND       PRES   REMARKS
GREELEY ARPT   FAIR      54  52  93 N3        29.99S
AKRON          MOCLDY    60  57  89 SE18      30.01F
BURLINGTON     CLOUDY    59  59 100 SE13      30.03F FOG
WRAY           FAIR     N/A N/A N/A SE6       30.03F HAZE
YUMA           CLOUDY    59  54  82 SE12      30.02F
STERLING       MOCLDY    61  59  94 S9        29.97F
HOLYOKE        NOT AVBL
FORT MORGAN    FAIR      58  55  89 E5        29.98F
$$

COZ086-089-092>099-271300-
...SOUTHEAST COLORADO...

CITY           SKY/WX    TMP DP  RH WIND       PRES   REMARKS
PUEBLO         FAIR      54  44  69 N5        30.04R
LA JUNTA       FAIR      59  50  72 SE7       30.03S
LAMAR          MOCLDY    53  52  96 S5        30.00F FOG
SPRINGFIELD      N/A     54  46  74 W3        30.06F
$$



USA.gov is the U.S. government's official web portal to all federal, state and local government web resources and services.